Regional Weather Roundup
Issued by NWS Raleigh/Durham, NC

Home | Current Version | Previous Version | Text Only | Print | Product List | Glossary On
Versions: 1 2 3 4 5 6 7 8 9 10 11 12 13 14 15 16 17 18 19 20 21 22 23 24 25 26 27 28 29 30 31 32 33 34 35 36 37 38 39 40 41 42 43 44 45 46 47 48 49 50
000
ASUS42 KRAH 170810
RWRRAH
NORTH CAROLINA WEATHER ROUNDUP
NATIONAL WEATHER SERVICE RALEIGH NC
400 AM EDT THU AUG 17 2017

NOTE: "FAIR" INDICATES FEW OR NO CLOUDS BELOW 12,000 FEET WITH NO
SIGNIFICANT WEATHER AND/OR OBSTRUCTIONS TO VISIBILITY.

NCZ001-053-055-056-065-067-170900-
WESTERN NORTH CAROLINA

CITY           SKY/WX    TMP DP  RH WIND       PRES   REMARKS
ASHEVILLE      CLOUDY    69  69 100 SW3       30.12F FOG
JEFFERSON      FOG       65  65 100 CALM      30.16F VSB<1/4
MORGANTON      FOG       70  70 100 CALM      30.09S VSB 3/4
HICKORY        CLEAR     73  73 100 CALM      30.05S
RUTHERFORDTON  CLEAR     72  72 100 CALM      30.06S
MOUNT AIRY     CLOUDY    73  69  87 CALM      30.07F
BOONE          CLEAR     63  63 100 CALM      30.17S FOG
$$

NCZ021-022-025-041-071-084-088-170900-
CENTRAL NORTH CAROLINA

CITY           SKY/WX    TMP DP  RH WIND       PRES   REMARKS
CHARLOTTE      CLOUDY    77  76  96 NE6       30.03F
GREENSBORO     MOCLDY    76  74  93 SW3       30.03F
WINSTON-SALEM  CLOUDY    75  73  93 NW3       30.05S
RALEIGH-DURHAM PTCLDY    78  73  84 SE3       30.03F
FORT BRAGG     CLEAR     77  75  96 CALM      30.00F
FAYETTEVILLE   CLEAR     79  77  94 CALM      30.00F
BURLINGTON     CLOUDY    75  74  96 CALM      30.02F
LAURINBURG     CLEAR     77  77 100 SW3       30.02S FOG
$$

NCZ011-015-027-028-043-044-047-080-103-170900-
NORTHEASTERN NORTH CAROLINA

CITY           SKY/WX    TMP DP  RH WIND       PRES   REMARKS
ROCKY MT-WILSO CLOUDY    75  75 100 CALM      30.02F FOG
GREENVILLE     CLOUDY    77  77 100 SE3       30.03F
WASHINGTON     CLEAR     74  74  98 CALM      30.02F FOG
ELIZABETH CITY FOG       70  70 100 CALM      30.02F VSB 1/4
MANTEO         CLEAR     72  71  98 CALM      30.03F
CAPE HATTERAS  MOCLDY    74  74 100 CALM      30.01F
$$

NCZ078-087-090-091-093-098-101-170900-
SOUTHEASTERN NORTH CAROLINA

CITY           SKY/WX    TMP DP  RH WIND       PRES   REMARKS
LUMBERTON      CLEAR     76  75  97 CALM      30.00F
GOLDSBORO      CLEAR     76  72  88 CALM      30.02F
KINSTON        FOG       76  76  98 CALM      30.02F VSB 1/2
KENANSVILLE    CLEAR     75  73  94 CALM      30.01F FOG
NEW BERN       PTCLDY    76  76 100 CALM      30.03F
CHERRY POINT   CLEAR     76  74  93 E3        30.03S
BEAUFORT       CLEAR     77  77 100 NE5       30.02S
JACKSONVILLE   CLEAR     76  76 100 CALM      30.01S
WILMINGTON     CLEAR     76  74  93 CALM      30.01S
$$




USA.gov is the U.S. government's official web portal to all federal, state and local government web resources and services.